Back to catalog

THORAD DELTA 1 DEB

AliveSSO
NORAD 8400·DEBRIS·🇺🇸 United States

Launched Nov 15, 1974 from Vandenberg Space Force Base

Loading…

Next Passes (next 24 hours)

TLE

FreshSource: Space-Track

Epoch: Sep 14, 2026, 09:54 UTC

1 08400U 74089CC  26257.41262812  .00000016  00000-0  42275-3 0  9998
2 08400 101.7998 219.2739 0052045   3.3232 148.9422 12.44970236356182

Track THORAD DELTA 1 DEB in real time with AllMySat

Download on the App Store